Regional Weather Roundup
Issued by NWS Cleveland, OH

Home | Current Version | Previous Version | Graphics & Text | Print | Product List | Glossary On
Versions: 1 2 3 4 5 6 7 8 9 10 11 12 13 14 15 16 17 18 19 20 21 22 23 24 25 26 27 28 29 30 31 32 33 34 35 36 37 38 39 40 41 42 43 44 45 46 47 48 49 50
000
ASUS41 KCLE 251510
RWRCLE
OHIO REGIONAL WEATHER ROUNDUP
NATIONAL WEATHER SERVICE CLEVELAND, OH
1000 AM EST TUE NOV 25 2014

NOTE: "FAIR" INDICATES FEW OR NO CLOUDS BELOW 12,000 FEET WITH NO
SIGNIFICANT WEATHER AND/OR OBSTRUCTIONS TO VISIBILITY.

OHZ001>008-015>018-024>027-034-035-043-044-251600-
   NORTHWEST OHIO

CITY           SKY/WX    TMP DP  RH WIND       PRES   REMARKS
DEFIANCE       NOT AVBL
FINDLAY        CLOUDY    35  27  72 SW21      30.00R WCI  24
TOLEDO EXPRESS CLOUDY    32  23  69 SW25G32   29.98R WCI  19
TOLEDO EXEC    CLOUDY    34  24  67 SW21G28   29.99R WCI  22
LIMA           CLOUDY    35  26  69 W20G28    30.01R WCI  24
$$

OHZ009>014-019>023-028>033-038-089-251600-
   NORTHEAST OHIO

CITY           SKY/WX    TMP DP  RH WIND       PRES   REMARKS
CLE-HOPKINS    CLOUDY    37  27  67 SW16      30.00R
CLE-LAKEFRONT  CLOUDY    38  26  62 MISG      29.98R
CUY CO. ARPT   NOT AVBL
LORAIN-ELYRIA  CLOUDY    36  28  73 W17       29.99R
ASHTABULA      CLOUDY    38  26  62 SW16G28   29.97R
AKRON-CANTON   PTSUNNY   38  27  64 SW16      30.00R
WOOSTER        CLOUDY   N/A N/A N/A SW17G24   30.01R
MANSFIELD      CLOUDY    34  26  72 SW20G28   30.00R WCI  23
YOUNGSTOWN     CLOUDY    37  27  67 SW15G25   29.99R
$$

OHZ042-051>053-060>062-070>072-077>081-251600-
  SOUTHWEST OHIO

CITY           SKY/WX    TMP DP  RH WIND       PRES   REMARKS
CINC-COVINGTON PTSUNNY   37  27  65 W10G18    30.07S
CINC-LUNKEN    MOSUNNY   40  28  62 W9        30.10S
HAMILTON       CLOUDY    38  28  67 W8        30.09R
DAYTON         CLOUDY    36  27  69 SW12G20   30.06R
WRIGHT-PAT AFB CLOUDY    36  28  72 S12       30.07R
DAYTON GENERAL CLOUDY    36  27  69 SW16      30.06R
WILMINGTON     PTSUNNY   37  26  64 W16G24    30.07R
$$

OHZ036-037-039>041-045>050-054>059-063>069-073>076-082>088-251600-
  CENTRAL AND SOUTHEAST OHIO

CITY           SKY/WX    TMP DP  RH WIND       PRES   REMARKS
COLUMBUS       MOSUNNY   37  27  67 SW13      30.06R
OSU AIRPORT    PTSUNNY   36  27  69 W14       30.06R
BOLTON FIELD   MOSUNNY   36  28  75 SW7       30.06R
RICKENBACK AFB MOSUNNY   37  29  73 W14G21    30.08R
NEWARK         MOSUNNY   38  28  67 SW17G26   30.06R
MARION         CLOUDY    35  24  64 SW17G26   30.04R WCI  25
LANCASTER      SUNNY     39  28  64 W17G23    30.08R
ZANESVILLE     SUNNY     40  28  62 SW13G18   30.06R
NEW PHILLY     SUNNY     40  28  62 SW13G24   30.05R
$$



USA.gov is the U.S. government's official web portal to all federal, state and local government web resources and services.